Location: La Brionne
(46.1728°N, 1.7849°E)
Time: 03:04:38
(UTC+00:00)

X-37B - Visible Passes

Search period start: 09 December 2022 00:00
Search period end: 19 December 2022 00:00
Orbit: 277 x 277 km, 45.0° (Epoch: 01 November)

Date Brightness Start Highest point End Pass type
(mag) Time Alt. Az. Time Alt. Az. Time Alt. Az.
09 Dec 1.4 17:31:27 10° SW 17:33:34 25° SSE 17:34:03 24° SE visible
10 Dec 0.9 17:31:51 10° SW 17:34:10 37° SSE 17:34:42 31° SE visible
11 Dec 0.4 17:32:24 10° WSW 17:34:47 50° S 17:35:21 39° ESE visible
12 Dec 0.1 17:33:00 10° WSW 17:35:27 62° S 17:36:00 44° ESE visible
13 Dec 0.0 17:33:40 10° W 17:36:06 68° S 17:36:40 46° ESE visible
14 Dec 0.1 17:34:20 10° W 17:36:47 64° S 17:37:22 43° ESE visible
15 Dec 0.4 17:35:02 10° W 17:37:26 53° S 17:38:09 36° SE visible
16 Dec 1.0 17:35:43 10° W 17:38:04 40° SSW 17:39:02 26° SE visible
17 Dec 1.8 17:36:29 10° W 17:38:40 28° SSW 17:40:03 16° SSE visible
18 Dec 2.6 17:37:23 10° WSW 17:39:14 19° SSW 17:41:05 10° SSE visible
